Home > Weather > Seeb > Past weeks

Flag for Oman Weather for the Past 2 Weeks in Seeb, Oman

Now
72 °F

Clear.


Feels Like: 77 °F
Forecast: 68 / 78 °F
Wind: No wind

Location: International Airport

Current Time: Feb 6, 2016 at 8:09:34 PM

Latest Report: Feb 6, 2016 at 6:50 PM


Visibility: 10 mi

Pressure: 30.01 "Hg

Humidity: 41%

Dew point: 46 °F

Location of SeebLocation

Historic Weather in Seeb — Graph

°F

Seeb Temperature Yesterday

Maximum temperature yesterday: 77 °F (at 12:50 PM)
Minimum temperature yesterday: 66 °F (at 6:50 AM)
Average temperature yesterday: 71 °F

High & Low Weather Summary for the Past Weeks

 TemperatureHumidityPressure
High88 °F (Jan 26, 3:50 PM)88% (Jan 28, 5:50 AM)30.24 "Hg (Jan 28, 5:50 AM)
Low61 °F (Feb 6, 4:50 AM)23% (Feb 5, 11:50 PM)29.86 "Hg (Jan 26, 2:50 PM)
Average71 °F58%30.05 "Hg
* Reported Jan 22 6:50 PM — Feb 6 6:50 PM, Seeb, Weather by CustomWeather, © 2016

Note: Actual official high and low records may vary slightly from our data, if they occured in-between our weather recording intervals... More about our weather records

Advertising

Seeb Weather History for the Previous 24 Hours

 ConditionsComfort  
Time TempWeatherWind HumidityBarometerVisibility
6:50 PM
Sat, Feb 6
72 °FClear.No wind41%30.01 "Hg10 mi
5:50 PM73 °FSunny.7 mph36%30.01 "Hg10 mi
4:50 PM75 °FSunny.10 mph39%29.98 "Hg10 mi
3:50 PM77 °FSunny.14 mph36%29.98 "Hg10 mi
2:50 PM79 °FSunny.12 mph23%30.01 "Hg10 mi
1:50 PM77 °FSunny.13 mph36%30.04 "Hg10 mi
12:50 PM77 °FSunny.10 mph36%30.04 "Hg10 mi
11:50 AM79 °FSunny.8 mph23%30.09 "Hg10 mi
10:50 AM77 °FPassing clouds.8 mph26%30.12 "HgN/A
9:50 AM75 °FSunny.7 mph34%30.15 "Hg10 mi
8:50 AM70 °FSunny.6 mph29%30.12 "Hg10 mi
7:50 AM66 °FSunny.5 mph30%30.09 "Hg10 mi
6:50 AM61 °FPassing clouds.5 mph34%30.07 "HgN/A
5:50 AM61 °FClear.8 mph31%30.07 "Hg10 mi
4:50 AM61 °FClear.8 mph31%30.04 "Hg10 mi
3:50 AM63 °FClear.6 mph27%30.04 "Hg10 mi
2:50 AM64 °FClear.5 mph26%30.07 "HgN/A
1:50 AM64 °FClear.3 mph28%30.07 "Hg10 mi
12:50 AM66 °FPassing clouds.8 mph26%30.09 "HgN/A
11:50 PM
Fri, Feb 5
70 °FClear.12 mph23%30.09 "Hg10 mi
10:50 PM68 °FClear.10 mph33%30.12 "Hg10 mi
9:50 PM68 °FClear.10 mph35%30.12 "Hg10 mi
8:50 PM70 °FClear.8 mph29%30.12 "Hg10 mi
Weather by CustomWeather, © 2016

See weather overviewHow to use our weather pages